Satellite-Ground Cal/Val Region Overpasses Predictions

Prediction of Satellite NPP Overpassing Cal/Val Region: PacNW

Region Location: (Latitude: 10.00, Longitude: 139.50) to (Latitude: 22.70, Longitude: 165.60).

Table of predicted overpasses for the next 14.0 days since TLE Epoch: 5/6/2017
Interval Starting Time Starting Location Ending Time Ending Location
1 05/06/2017 15:49:03 ( 22.64, 147.64) 05/06/2017 15:52:38 ( 10.02, 144.64)
2 05/07/2017 02:58:08 ( 10.05, 155.16) 05/07/2017 03:01:43 ( 22.67, 152.16)
3 05/07/2017 15:30:00 ( 22.69, 152.41) 05/07/2017 15:33:36 ( 10.01, 149.39)
4 05/08/2017 02:39:05 ( 10.01, 159.93) 05/08/2017 02:42:41 ( 22.69, 156.91)
5 05/08/2017 15:10:59 ( 22.67, 157.16) 05/08/2017 15:14:34 ( 10.05, 154.16)
6 05/09/2017 02:20:04 ( 10.02, 164.68) 05/09/2017 02:23:39 ( 22.64, 161.68)
7 05/09/2017 14:51:57 ( 22.65, 161.91) 05/09/2017 14:55:32 ( 10.03, 158.91)
8 05/10/2017 03:42:32 ( 10.05, 144.06) 05/10/2017 03:46:07 ( 22.67, 141.06)
9 05/10/2017 14:34:11 ( 18.24, 165.59) 05/10/2017 14:36:31 ( 10.02, 163.67)
10 05/10/2017 16:14:25 ( 22.69, 141.31) 05/10/2017 16:16:32 ( 15.24, 139.50)
11 05/11/2017 03:23:30 ( 10.00, 148.83) 05/11/2017 03:27:06 ( 22.68, 145.81)
12 05/11/2017 15:55:23 ( 22.67, 146.06) 05/11/2017 15:58:58 ( 10.05, 143.06)
13 05/12/2017 03:04:28 ( 10.02, 153.58) 05/12/2017 03:08:03 ( 22.64, 150.58)
14 05/12/2017 15:36:22 ( 22.65, 150.81) 05/12/2017 15:39:57 ( 10.03, 147.81)
15 05/13/2017 02:45:27 ( 10.04, 158.34) 05/13/2017 02:49:02 ( 22.66, 155.33)
16 05/13/2017 15:17:19 ( 22.70, 155.58) 05/13/2017 15:20:55 ( 10.02, 152.56)
17 05/14/2017 02:26:25 ( 10.06, 163.09) 05/14/2017 02:30:00 ( 22.68, 160.09)
18 05/14/2017 14:58:18 ( 22.68, 160.34) 05/14/2017 15:01:53 ( 10.06, 157.33)
19 05/15/2017 02:10:07 ( 19.65, 165.59) 05/15/2017 02:10:59 ( 22.70, 164.84)
20 05/15/2017 03:48:53 ( 10.02, 142.48) 05/15/2017 03:52:26 ( 22.53, 139.51)
21 05/15/2017 14:39:17 ( 22.66, 165.09) 05/15/2017 14:42:52 ( 10.04, 162.08)
22 05/15/2017 16:20:47 ( 22.65, 139.71) 05/15/2017 16:21:01 ( 21.83, 139.51)
23 05/16/2017 03:29:51 ( 10.04, 147.24) 05/16/2017 03:33:26 ( 22.66, 144.23)
24 05/16/2017 16:01:44 ( 22.69, 144.48) 05/16/2017 16:05:20 ( 10.02, 141.46)
25 05/17/2017 03:10:49 ( 10.00, 152.00) 05/17/2017 03:14:25 ( 22.68, 148.99)
26 05/17/2017 15:42:43 ( 22.68, 149.23) 05/17/2017 15:46:18 ( 10.06, 146.23)
27 05/18/2017 02:51:47 ( 10.02, 156.76) 05/18/2017 02:55:22 ( 22.64, 153.75)
28 05/18/2017 15:23:41 ( 22.66, 153.99) 05/18/2017 15:27:16 ( 10.04, 150.98)
29 05/19/2017 02:32:46 ( 10.04, 161.51) 05/19/2017 02:36:21 ( 22.66, 158.51)
30 05/19/2017 15:04:39 ( 22.70, 158.75) 05/19/2017 15:08:15 ( 10.02, 155.74)
31 05/20/2017 02:14:34 ( 13.00, 165.59) 05/20/2017 02:17:19 ( 22.68, 163.26)


NCC Satellite Cal/Val Overpasses Prediction Service
